Zurück zum Katalog

STARLINK-32849

AktivKommunikationVLEO
NORAD 62872·PAYLOAD·🇺🇸 United States

Gestartet Feb 1, 2025 von Vandenberg Space Force Base

Loading…

Nächste Überflüge (nächste 24 Stunden)

TLE

AktuellSource: CelesTrak SupGP

Epoche: Sep 15, 2026, 02:09 UTC

1 62872C 25022U   26258.09006944  .00070665  00000+0  20882-2 0  2584
2 62872  53.1578 326.6917 0001263  96.7235 240.8375 15.34349263    14

Verfolge STARLINK-32849 in Echtzeit mit AllMySat

Download on the App Store